TimeCDT,TemperatureF,Dew PointF,Humidity,Sea Level PressureIn,VisibilityMPH,Wind Direction,Wind SpeedMPH,Gust SpeedMPH,PrecipitationIn,Events,Conditions,WindDirDegrees,DateUTC
12:52 AM,75.0,71.1,87,29.89,10.0,East,5.8,-,N/A,,Clear,100,2013-08-28 05:52:00
1:52 AM,73.9,70.0,87,29.89,10.0,East,5.8,-,N/A,,Clear,100,2013-08-28 06:52:00
2:52 AM,73.0,69.1,87,29.89,10.0,East,4.6,-,N/A,,Clear,90,2013-08-28 07:52:00
3:52 AM,73.0,68.0,84,29.89,10.0,East,4.6,-,N/A,,Clear,90,2013-08-28 08:52:00
4:52 AM,72.0,66.9,84,29.90,10.0,East,4.6,-,N/A,,Clear,100,2013-08-28 09:52:00
5:52 AM,69.1,66.0,90,29.91,10.0,ESE,6.9,-,N/A,,Clear,110,2013-08-28 10:52:00
6:52 AM,68.0,66.0,93,29.92,10.0,ESE,5.8,-,N/A,,Clear,120,2013-08-28 11:52:00
7:52 AM,70.0,66.9,90,29.93,10.0,SE,5.8,-,N/A,,Clear,130,2013-08-28 12:52:00
8:52 AM,73.9,68.0,82,29.94,10.0,SE,4.6,-,N/A,,Clear,130,2013-08-28 13:52:00
9:52 AM,78.1,69.1,74,29.95,10.0,South,3.5,-,N/A,,Clear,170,2013-08-28 14:52:00
10:52 AM,81.0,69.1,67,29.96,10.0,Calm,Calm,-,N/A,,Clear,0,2013-08-28 15:52:00
11:52 AM,84.0,70.0,63,29.96,10.0,Calm,Calm,-,N/A,,Clear,0,2013-08-28 16:52:00
12:52 PM,87.1,71.1,59,29.95,10.0,SSW,5.8,-,N/A,,Clear,200,2013-08-28 17:52:00
1:52 PM,89.1,72.0,57,29.95,10.0,ESE,6.9,-,N/A,,Clear,110,2013-08-28 18:52:00
2:52 PM,91.0,73.9,57,29.95,10.0,ESE,5.8,-,N/A,,Clear,110,2013-08-28 19:52:00
3:52 PM,90.0,75.0,61,29.93,10.0,SSE,9.2,-,N/A,,Clear,150,2013-08-28 20:52:00
4:52 PM,91.0,75.9,61,29.93,10.0,South,6.9,-,N/A,,Clear,180,2013-08-28 21:52:00
5:52 PM,90.0,73.0,57,29.93,10.0,SSW,6.9,-,N/A,,Clear,210,2013-08-28 22:52:00
6:52 PM,88.0,73.9,63,29.93,10.0,South,5.8,-,N/A,,Clear,190,2013-08-28 23:52:00
7:52 PM,82.0,73.9,76,29.94,10.0,South,6.9,-,N/A,,Clear,170,2013-08-29 00:52:00
8:52 PM,79.0,73.0,82,29.95,10.0,Calm,Calm,-,N/A,,Clear,0,2013-08-29 01:52:00
9:52 PM,80.1,71.1,74,29.95,10.0,SSE,8.1,-,N/A,,Clear,150,2013-08-29 02:52:00
10:52 PM,77.0,70.0,79,29.96,10.0,SSE,4.6,-,N/A,,Clear,160,2013-08-29 03:52:00
11:52 PM,73.9,70.0,87,29.96,10.0,ESE,6.9,-,N/A,,Clear,120,2013-08-29 04:52:00